Location: Newark
(30.0333°N, 31.2167°E)
Time: 09:09:23
(UTC+00:00)

Vanguard 1 - All Passes

Search period start: 29 January 2020 00:00
Search period end: 08 February 2020 00:00
Orbit: 650 x 3833 km, 34.2° (Epoch: 28 January)

Date Brightness Start Highest point End Pass type
(mag) Time Alt. Az. Time Alt. Az. Time Alt. Az.
29 Jan - 09:40:41 10° S 09:45:46 15° SSE 09:49:40 10° ESE daylight
29 Jan - 12:00:14 10° SW 12:06:58 52° SSE 12:11:31 10° E daylight
29 Jan - 14:22:23 10° W 14:27:06 55° N 14:31:32 10° ENE daylight
29 Jan - 16:42:58 10° WNW 16:47:28 70° NNE 16:53:45 10° E visible
29 Jan - 19:02:35 10° W 19:08:01 42° SSW 19:17:02 10° SE visible
29 Jan - 21:25:49 10° WSW 21:30:21 14° SSW 21:36:05 10° S night (unlit)
30 Jan - 09:59:54 10° SSW 10:07:04 23° SSE 10:11:57 10° ESE daylight
30 Jan - 12:21:16 10° WSW 12:27:56 74° SSE 12:32:31 10° ENE daylight
30 Jan - 14:43:38 10° W 14:48:09 50° N 14:52:38 10° ENE daylight
30 Jan - 17:03:53 10° WNW 17:08:27 89° NNE 17:15:07 10° ESE visible
30 Jan - 19:23:53 10° W 19:29:11 30° SSW 19:37:31 10° SSE visible
31 Jan - 10:19:58 10° SW 10:28:17 33° SSE 10:33:33 10° E daylight
31 Jan - 12:42:30 10° WSW 12:48:55 84° NNW 12:53:26 10° ENE daylight
31 Jan - 15:04:48 10° WNW 15:09:14 51° N 15:13:51 10° E daylight
31 Jan - 17:24:49 10° WNW 17:29:26 68° SSW 17:36:19 10° ESE visible
31 Jan - 19:45:34 10° WSW 19:50:26 21° SSW 19:57:27 10° SSE visible
01 Feb - 08:20:54 10° S 08:27:17 15° SSE 08:32:08 10° ESE daylight
01 Feb - 10:40:33 10° SW 10:49:26 45° SSE 10:54:46 10° E daylight
01 Feb - 13:03:52 10° W 13:09:55 66° NNW 13:14:21 10° ENE daylight
01 Feb - 15:25:53 10° WNW 15:30:17 58° N 15:35:07 10° E daylight
01 Feb - 17:45:50 10° W 17:50:25 48° SSW 17:57:18 10° SE visible
01 Feb - 20:08:08 10° WSW 20:11:46 14° SSW 20:16:22 10° S night (unlit)
02 Feb - 08:39:42 10° SSW 08:48:44 22° SSE 08:54:47 10° ESE daylight
02 Feb - 11:01:30 10° SW 11:10:30 62° SSE 11:15:48 10° ENE daylight
02 Feb - 13:25:18 10° W 13:30:57 56° N 13:35:18 10° ENE daylight
02 Feb - 15:46:53 10° WNW 15:51:18 72° NNE 15:56:21 10° E visible
02 Feb - 18:07:00 10° W 18:11:27 33° SSW 18:17:55 10° SE visible
03 Feb - 08:59:29 10° SSW 09:10:06 31° SSE 09:16:36 10° E daylight
03 Feb - 11:22:45 10° WSW 11:31:32 81° SSE 11:36:44 10° ENE daylight
03 Feb - 13:46:41 10° W 13:52:02 52° N 13:56:20 10° ENE daylight
03 Feb - 16:07:51 10° WNW 16:12:16 85° SSW 16:17:32 10° ESE visible
03 Feb - 18:28:30 10° WSW 18:32:33 22° SSW 18:38:05 10° SSE visible
04 Feb - 07:00:43 10° S 07:08:09 15° SSE 07:13:55 10° ESE daylight
04 Feb - 09:19:52 10° SW 09:31:22 42° SSE 09:37:59 10° E daylight
04 Feb - 11:44:12 10° WSW 11:52:34 81° NNW 11:57:37 10° ENE daylight
04 Feb - 14:07:59 10° WNW 14:13:07 53° N 14:17:25 10° E daylight
04 Feb - 16:28:52 10° WNW 16:33:12 59° SSW 16:38:33 10° SE visible
04 Feb - 18:50:44 10° WSW 18:53:43 14° SSW 18:57:22 10° S visible
05 Feb - 07:18:54 10° SSW 07:29:44 22° SSE 07:37:10 10° ESE daylight
05 Feb - 09:40:41 10° SW 09:52:35 55° SSE 09:59:06 10° E daylight
05 Feb - 12:05:46 10° W 12:13:36 68° NNW 12:18:30 10° ENE daylight
05 Feb - 14:29:11 10° WNW 14:34:11 60° N 14:38:33 10° E daylight
05 Feb - 16:49:58 10° W 16:54:07 39° SSW 16:59:17 10° SE visible
06 Feb - 07:38:18 10° SSW 07:51:14 30° SSE 07:59:19 10° E daylight
06 Feb - 10:01:52 10° WSW 10:13:42 70° SSE 10:20:05 10° ENE daylight
06 Feb - 12:27:22 10° W 12:34:41 59° N 12:39:26 10° ENE daylight
06 Feb - 14:50:19 10° WNW 14:55:11 76° NNE 14:59:40 10° ESE daylight
06 Feb - 17:11:21 10° W 17:15:04 25° SSW 17:19:39 10° SSE visible
07 Feb - 05:40:50 10° S 05:48:17 13° SSE 05:54:27 10° ESE daylight
07 Feb - 07:58:23 10° SSW 08:12:39 39° SSE 08:20:55 10° E daylight
07 Feb - 10:23:19 10° WSW 10:34:48 86° SSE 10:41:00 10° ENE daylight
07 Feb - 12:48:57 10° W 12:55:48 56° N 13:00:24 10° ENE daylight
07 Feb - 15:11:24 10° WNW 15:16:09 79° SSW 15:20:41 10° ESE daylight
07 Feb - 17:33:14 10° WSW 17:36:02 16° SSW 17:39:20 10° S visible
